Showing default

COSMOS 1636, 15618

Orbit data source: Space-Track

COSMOS 1636, 15618 is a payload satellite owned by GUKOS (CIS) in LEO that was launched on Thu, 21 Mar 1985 UTC via a KOSMOS 11K65M launch vehicle from the Plesetsk Missile And Space Complex (PKMTR). Payload-class satellites include a variety of spacecraft equipped with specific instruments for various scientific and technological missions. These include communications satellites like Starlink; space stations such as the ISS; scientific satellites like the Hubble; Earth observation satellites from companies like Planet Labs, Umbra, and HawkEye 360; GPS; miniature CubeSats for education and research; and military/defense satellites.

Loading next visibility...
Identifier
15618, 1985-023B
Orbit
LEO
Country
Flag of CISCIS
Related business
Manufacturer
NPO PM
Mission
Spacecraft
Bus & Motor
STRELA-1 11F625, Unknown motor
Mass
60 kg wet, 60 kg dry
Launch date (UTC)
1985-03-21 (41 years ago)
Launch vehicle
KOSMOS 11K65M
Launch site
Plesetsk Missile And Space Complex (PKMTR)
Object type
Payload
Rocket body
Debris
Shape & HBR
Unknown
Radar Cross Section
Medium (>0.1 m² and <1 m²)

Expand to show TLE details & history
Last TLE update: 22 hours ago

TLE from 22 hours ago
0 COSMOS 1636
1 15618U 85023B   25348.69460627 -.00000022  00000-0 -41962-4 0  9993
2 15618  74.0567  62.0580 0013202 331.6722 147.2952 12.45354689851905
Epoch: 2025-12-14T16:40Z
TLE epoch observation values (Epoch: 2025-12-14T16:40:13.981Z)
Latitude
57.29888°
Longitude
-117.8861°
Altitude
1,501.953 km
Speed
7.115 km/s
True Right ascension
14h 23m 06s
True Declination
57° 09' 26"
Sunlit
Object was in daylight at epoch
Visualization orbit readout
Latitude
Unknown
Longitude
Unknown
Altitude
Unknown
Speed
Unknown
Apparent Right ascension
Unknown
Apparent Declination
Unknown
Sunlit
N/A
Visualization observer readout
Local Sidereal Time
13:22:53
Azimuth
Unknown
Elevation
Unknown
Doppler factor
Unknown
Orbital elements
Apogee altitude
1,492.201 km
Perigee altitude
1,471.447 km
Semi-major axis
7,859.961 km
Eccentricity
0.00132
Inclination
74.0567°
RAAN
62.058°
Arg. of periapsis
331.6722°
True anomaly
147.37683°
Mean anomaly
147.2952°
Eccentric anomaly
147.33602°
Mean motion
3.11467 °/min
Orbital period
115.58 mins
BSTAR
-0.000041962
Loading maneuver chart data...
Computing Atmospheric mass density...
Loading historical data...
Loading historical data...
Loading historical data...
Loading historical data...
Loading historical data...
Loading historical data...
Loading historical data...

Documentation

Showing up to 5 results
|